Weather History for Lawrence, MA

Change the Weather History Date:

Monday, February 10, 2014

  Actual Average Record
Temperature  
Mean Temperature 20 °F -  
Max Temperature 26 °F 35 °F 60 °F (1990)
Min Temperature 12 °F 13 °F -12 °F (1948)
Degree Days  
Heating Degree Days 45    
Moisture  
Dew Point 11 °F    
Average Humidity 63    
Maximum Humidity 85    
Minimum Humidity 39    
Precipitation  
Precipitation 0.01 in - - ()
Sea Level Pressure  
Sea Level Pressure 30.03 in    
Wind  
Wind Speed 8 mph (West)    
Max Wind Speed 16 mph    
Max Gust Speed 23 mph    
Visibility 8 miles    
Events Snow    
Averages and records for this station are not official NWS values.
T = Trace of Precipitation, MM = Missing Value Source: NWS Daily Summary

Daily Weather History Graph

Daily Weather History Graph

Search for Another Location

Airport:

Trip Planner

Search our weather history database for the weather conditions in past years. The results will help you decide how hot, cold, wet, or windy it might be!

Date:

Astronomy

Feb. 10, 2014 Rise Set
Actual Time 6:48 AM EST 5:09 PM EST
Civil Twilight 6:19 AM EST 5:39 PM EST
Nautical Twilight 5:45 AM EST 6:12 PM EST
Astronomical Twilight 5:12 AM EST 6:45 PM EST
Moon 1:33 PM EST (2/10) 3:41 AM EST (2/10)
Length of Visible Light 11h 20m
Length of Day
10h 21m
Waxing Gibbous, 84% of the Moon is Illuminated
Feb 10
Waxing Gibbous
Feb 14
Full
Feb 22
Last Quarter
Mar 1
New
Mar 8
First Quarter

Hourly Weather History & Observations

Time (EST) Temp. Windchill Dew Point Humidity Pressure Visibility Wind Dir Wind Speed Gust Speed Precip Events Conditions
12:06 AM 26.1 °F 17.6 °F 21.0 °F 81% 29.95 in 1.5 mi SW 8.1 mph - 0.00 in Snow Light Snow
12:54 AM 25.0 °F 18.1 °F 19.9 °F 81% 29.94 in 3.0 mi SW 5.8 mph - 0.01 in Snow Light Snow
1:04 AM 25.0 °F 18.1 °F 19.9 °F 81% 29.93 in 4.0 mi WSW 5.8 mph - 0.00 in Snow Light Snow
1:24 AM 25.0 °F 17.1 °F 19.9 °F 81% 29.92 in 2.5 mi WSW 6.9 mph - 0.00 in Snow Light Snow
1:34 AM 25.0 °F 18.1 °F 19.9 °F 81% 29.92 in 3.0 mi WSW 5.8 mph - 0.00 in Snow Light Snow
1:54 AM 24.1 °F 18.2 °F 19.9 °F 84% 29.93 in 7.0 mi WSW 4.6 mph - 0.00 in Snow Light Snow
2:09 AM 23.0 °F 18.4 °F 19.0 °F 85% 29.92 in 8.0 mi West 3.5 mph - 0.00 in Snow Light Snow
2:54 AM 21.9 °F 17.2 °F 18.0 °F 85% 29.92 in 7.0 mi SW 3.5 mph - 0.00 in   Overcast
3:54 AM 23.0 °F 13.9 °F 19.0 °F 85% 29.91 in 10.0 mi West 8.1 mph - N/A   Overcast
4:54 AM 21.9 °F 11.7 °F 16.0 °F 78% 29.93 in 10.0 mi West 9.2 mph - N/A   Overcast
5:54 AM 21.0 °F 10.6 °F 15.1 °F 78% 29.94 in 10.0 mi West 9.2 mph - N/A   Clear
6:54 AM 21.0 °F 11.4 °F 12.9 °F 71% 29.96 in 10.0 mi WNW 8.1 mph - N/A   Clear
7:54 AM 21.0 °F 11.4 °F 12.9 °F 71% 29.99 in 10.0 mi NW 8.1 mph - N/A   Clear
8:54 AM 21.9 °F 10.4 °F 12.0 °F 66% 30.01 in 10.0 mi NW 11.5 mph - N/A   Clear
9:54 AM 24.1 °F 12.0 °F 10.0 °F 55% 30.03 in 10.0 mi NW 13.8 mph 20.7 mph N/A   Clear
10:54 AM 25.0 °F 12.6 °F 8.1 °F 49% 30.06 in 10.0 mi WNW 15.0 mph 21.9 mph N/A   Partly Cloudy
11:54 AM 26.1 °F 13.6 °F 6.1 °F 43% 30.04 in 10.0 mi NW 16.1 mph 23.0 mph N/A   Clear
12:54 PM 26.1 °F 15.0 °F 5.0 °F 41% 30.03 in 10.0 mi WNW 12.7 mph - N/A   Clear
1:54 PM 26.1 °F 14.0 °F 5.0 °F 41% 30.04 in 10.0 mi NW 15.0 mph 20.7 mph N/A   Clear
2:54 PM 26.1 °F 15.0 °F 3.9 °F 39% 30.05 in 10.0 mi WNW 12.7 mph 17.3 mph N/A   Scattered Clouds
3:54 PM 25.0 °F 14.2 °F 3.9 °F 41% 30.07 in 10.0 mi NNW 11.5 mph 17.3 mph N/A   Partly Cloudy
4:54 PM 25.0 °F 14.2 °F 3.9 °F 41% 30.10 in 10.0 mi NW 11.5 mph - N/A   Overcast
5:54 PM 23.0 °F 14.7 °F 1.9 °F 40% 30.14 in 10.0 mi WNW 6.9 mph - N/A   Partly Cloudy
6:54 PM 21.0 °F 13.4 °F 3.0 °F 46% 30.16 in 10.0 mi NW 5.8 mph - N/A   Clear
7:54 PM 19.9 °F 13.4 °F 3.9 °F 50% 30.18 in 10.0 mi WNW 4.6 mph - N/A   Clear
8:54 PM 18.0 °F 11.1 °F 3.9 °F 54% 30.19 in 10.0 mi WNW 4.6 mph - N/A   Clear
9:54 PM 15.1 °F 7.7 °F 3.9 °F 61% 30.20 in 10.0 mi WNW 4.6 mph - N/A   Clear
10:54 PM 14.0 °F 8.2 °F 3.9 °F 64% 30.21 in 10.0 mi West 3.5 mph - N/A   Clear
11:54 PM 12.0 °F 5.9 °F 3.0 °F 67% 30.23 in 10.0 mi WSW 3.5 mph - N/A   Clear